This is the latest recevied weather packets stored in our database for station/object N7MLR. If no packets are shown the sender has not sent any weather packets the latest 10 day(s).
| Time | Temp. | Humidity | Pressure | Rain* | Wind** | Luminosity | Snow |
|---|---|---|---|---|---|---|---|
| 1777669499 | 13.89° C | 99% | 1012.5 hPa | 1.78 mm | - | 86 W/m² | - |
| 1777669195 | 13.89° C | 99% | 1012.4 hPa | 3.05 mm | - | 113 W/m² | - |
| 1777668892 | 13.89° C | 99% | 1011.8 hPa | 3.05 mm | - | 88 W/m² | - |
| 1777668590 | 13.89° C | 99% | 1011.7 hPa | 7.87 mm | - | 120 W/m² | - |
| 1777668285 | 13.89° C | 99% | 1012.5 hPa | 10.16 mm | - | 104 W/m² | - |
| 1777667982 | 13.89° C | 99% | 1012.5 hPa | 4.32 mm | - | 59 W/m² | - |
| 1777667679 | 13.89° C | 99% | 1012.2 hPa | 1.78 mm | - | 80 W/m² | - |
| 1777667376 | 13.89° C | 99% | 1012.9 hPa | 1.78 mm | - | 64 W/m² | - |
| 1777667073 | 13.89° C | 99% | 1012.5 hPa | 1.78 mm | - | 40 W/m² | - |
| 1777666769 | 13.89° C | 99% | 1012 hPa | 3.05 mm | - | 113 W/m² | - |
| 1777666467 | 14.44° C | 99% | 1012 hPa | 1.27 mm | - | 97 W/m² | - |
| 1777666163 | 13.89° C | 99% | 1011.7 hPa | 0 mm | - | 50 W/m² | - |
| 1777665861 | 14.44° C | 99% | 1011.3 hPa | 0 mm | - | 61 W/m² | - |
| 1777665558 | 14.44° C | 99% | 1010.9 hPa | 0 mm | - | 94 W/m² | - |
| 1777665255 | 15° C | 99% | 1011.2 hPa | 0 mm | - | 81 W/m² | - |
| 1777664950 | 15° C | 99% | 1011.1 hPa | 0 mm | - | 264 W/m² | - |
| 1777664646 | 14.44° C | 99% | 1011.1 hPa | 0 mm | - | 193 W/m² | - |
| 1777664342 | 15° C | 99% | 1010.9 hPa | 0 mm | - | 178 W/m² | - |
| 1777664041 | 15° C | 99% | 1010.9 hPa | 0 mm | - | 263 W/m² | - |
| 1777663738 | 15° C | 99% | 1010.7 hPa | 0 mm | - | 266 W/m² | - |
| 1777663435 | 15° C | 99% | 1010.2 hPa | 0 mm | - | 264 W/m² | - |
| 1777663132 | 15° C | 99% | 1009.9 hPa | 0 mm | - | 350 W/m² | - |
| 1777662829 | 15° C | 99% | 1010.6 hPa | 0 mm | - | 404 W/m² | - |
| 1777662526 | 14.44° C | 99% | 1010.3 hPa | 1.78 mm | - | 344 W/m² | - |
| 1777662222 | 15° C | 99% | 1011.3 hPa | 6.1 mm | - | 183 W/m² | - |
* Rain latest hour (hover to see other rain measurements)
** Current wind speed in m/s (hover to see current wind gust speed)